Terug naar catalogus

LEMUR 2 JOEL

LostWetenschapLEO
NORAD 40932·PAYLOAD·🇺🇸 United States

Gelanceerd Sep 28, 2015 vanaf Satish Dhawan Space Centre

Loading…

Volgende Passages (komende 24 uur)

TLE

VerouderdSource: Space-Track

Epoch: Jan 6, 2024, 20:11 UTC

1 40932U 15052C   24006.84122350  .00004780  00000-0  48353-3 0  9993
2 40932   6.0091  16.6023 0011392  49.7308 310.3816 14.83659809447887

Volg LEMUR 2 JOEL in realtime met AllMySat

Download on the App Store